• In Netherlands
  • List of Countries
  • For 7 days
  • Water Temperature
  • Satellite Maps
  • Weather Map
  • Weather Widgets
  • user-avatar
    Login

    Hourly Weather Stepanakert

    Today, 20 September, Wednesday

    Time Temperature Precipitation Wind Pressure Humidity
    00:00 +20°C° 0 mm 2 mps 695 mmHg 46%
    01:00 +21°C° 0 mm 1 mps 695 mmHg 47%
    02:00 +21°C° 0 mm 1 mps 695 mmHg 47%
    03:00 +20°C° 0 mm 1 mps 694 mmHg 48%
    04:00 +20°C° 0 mm 1 mps 694 mmHg 48%
    05:00 +20°C° 0 mm 1 mps 694 mmHg 48%
    06:00 +20°C° 0 mm 1 mps 695 mmHg 47%
    07:00 +22°C° 0 mm 1 mps 695 mmHg 44%
    08:00 +24°C° 0 mm 2 mps 695 mmHg 42%
    09:00 +27°C° 0 mm 2 mps 696 mmHg 39%
    10:00 +28°C° 0 mm 2 mps 696 mmHg 36%
    11:00 +29°C° 0 mm 2 mps 695 mmHg 34%
    12:00 +30°C° 0 mm 3 mps 695 mmHg 31%
    13:00 +30°C° 0 mm 3 mps 695 mmHg 31%
    14:00 +31°C° 0 mm 3 mps 695 mmHg 30%
    15:00 +31°C° 0 mm 3 mps 695 mmHg 30%
    16:00 +29°C° 0 mm 2 mps 694 mmHg 35%
    17:00 +27°C° 0 mm 1 mps 694 mmHg 40%
    18:00 +25°C° 0 mm 1 mps 694 mmHg 45%
    19:00 +25°C° 0 mm 1 mps 694 mmHg 47%
    20:00 +24°C° 0 mm 1 mps 694 mmHg 49%
    21:00 +23°C° 0 mm 1 mps 694 mmHg 51%
    22:00 +23°C° 0 mm 1 mps 694 mmHg 51%
    23:00 +22°C° 0 mm 1 mps 694 mmHg 51%

    Tomorrow, 21 September, Thursday

    Time Temperature Precipitation Wind Pressure Humidity
    00:00 +22°C° 0 mm 1 mps 694 mmHg 52%
    01:00 +22°C° 0 mm 1 mps 694 mmHg 52%
    02:00 +21°C° 0 mm 1 mps 694 mmHg 52%
    03:00 +21°C° 0 mm 1 mps 694 mmHg 52%
    04:00 +21°C° 0 mm 1 mps 694 mmHg 52%
    05:00 +21°C° 0 mm 1 mps 694 mmHg 51%
    06:00 +21°C° 0 mm 1 mps 694 mmHg 51%
    07:00 +23°C° 0 mm 1 mps 694 mmHg 46%
    08:00 +25°C° 0 mm 1 mps 694 mmHg 41%
    09:00 +27°C° 0 mm 2 mps 695 mmHg 37%
    10:00 +28°C° 0 mm 2 mps 695 mmHg 33%
    11:00 +30°C° 0 mm 2 mps 695 mmHg 30%
    12:00 +31°C° 0 mm 3 mps 694 mmHg 27%
    13:00 +31°C° 0 mm 3 mps 694 mmHg 27%
    14:00 +31°C° 0 mm 3 mps 694 mmHg 27%
    15:00 +31°C° 0 mm 3 mps 693 mmHg 26%
    16:00 +30°C° 0 mm 2 mps 693 mmHg 30%
    17:00 +28°C° 0 mm 2 mps 693 mmHg 34%
    18:00 +26°C° 0 mm 2 mps 692 mmHg 38%
    19:00 +25°C° 0 mm 1 mps 693 mmHg 41%
    20:00 +24°C° 0 mm 1 mps 693 mmHg 44%
    21:00 +23°C° 0 mm 1 mps 693 mmHg 47%
    22:00 +23°C° 0 mm 1 mps 693 mmHg 48%
    23:00 +22°C° 0 mm 1 mps 693 mmHg 50%

    Day after tomorrow, 22 September, Friday

    Time Temperature Precipitation Wind Pressure Humidity
    00:00 +22°C° 0 mm 1 mps 693 mmHg 51%
    01:00 +21°C° 0 mm 1 mps 693 mmHg 52%
    02:00 +21°C° 0 mm 1 mps 693 mmHg 54%
    03:00 +20°C° 0 mm 1 mps 693 mmHg 55%
    04:00 +20°C° 0 mm 1 mps 693 mmHg 55%
    05:00 +20°C° 0 mm 1 mps 693 mmHg 56%
    06:00 +20°C° 0 mm 1 mps 693 mmHg 56%
    07:00 +22°C° 0 mm 1 mps 693 mmHg 50%
    08:00 +24°C° 0 mm 2 mps 693 mmHg 44%
    09:00 +26°C° 0 mm 2 mps 694 mmHg 38%
    10:00 +27°C° 0 mm 2 mps 693 mmHg 35%
    11:00 +29°C° 0 mm 3 mps 693 mmHg 32%
    12:00 +30°C° 0 mm 3 mps 693 mmHg 28%
    13:00 +30°C° 0 mm 3 mps 692 mmHg 29%
    14:00 +30°C° 0 mm 3 mps 692 mmHg 29%
    15:00 +30°C° 0 mm 3 mps 691 mmHg 29%
    16:00 +29°C° 0 mm 3 mps 691 mmHg 33%
    17:00 +27°C° 0 mm 2 mps 691 mmHg 38%
    18:00 +25°C° 0 mm 1 mps 691 mmHg 43%
    19:00 +24°C° 0 mm 2 mps 691 mmHg 46%
    20:00 +23°C° 0 mm 2 mps 692 mmHg 48%
    21:00 +21°C° 0 mm 2 mps 692 mmHg 51%
    22:00 +21°C° 0 mm 2 mps 692 mmHg 53%
    23:00 +21°C° 0 mm 1 mps 692 mmHg 55%

    23 September, Saturday

    Time Temperature Precipitation Wind Pressure Humidity
    00:00 +21°C° 0 mm 1 mps 692 mmHg 57%
    01:00 +20°C° 0 mm 1 mps 692 mmHg 57%
    02:00 +20°C° 0 mm 1 mps 692 mmHg 57%
    03:00 +20°C° 0 mm 1 mps 692 mmHg 58%
    04:00 +19°C° 0 mm 1 mps 692 mmHg 58%
    05:00 +19°C° 0 mm 1 mps 693 mmHg 57%
    06:00 +19°C° 0 mm 1 mps 693 mmHg 57%
    07:00 +21°C° 0 mm 1 mps 693 mmHg 51%
    08:00 +23°C° 0 mm 2 mps 694 mmHg 45%
    09:00 +25°C° 0 mm 2 mps 695 mmHg 38%
    10:00 +26°C° 0 mm 2 mps 694 mmHg 36%
    11:00 +28°C° 0 mm 3 mps 694 mmHg 34%
    12:00 +29°C° 0 mm 3 mps 694 mmHg 31%
    13:00 +29°C° 0 mm 3 mps 694 mmHg 32%
    14:00 +29°C° 0 mm 3 mps 694 mmHg 32%
    15:00 +29°C° 0 mm 3 mps 694 mmHg 33%
    16:00 +28°C° 0 mm 3 mps 694 mmHg 38%
    17:00 +26°C° 0 mm 2 mps 694 mmHg 43%
    18:00 +24°C° 0 mm 1 mps 694 mmHg 47%
    19:00 +23°C° 0 mm 1 mps 694 mmHg 51%
    20:00 +23°C° 0 mm 1 mps 695 mmHg 54%
    21:00 +22°C° 0 mm 1 mps 695 mmHg 58%
    22:00 +21°C° 0 mm 1 mps 695 mmHg 59%
    23:00 +21°C° 0 mm 1 mps 695 mmHg 61%

    24 September, Sunday

    Time Temperature Precipitation Wind Pressure Humidity
    00:00 +20°C° 0 mm 1 mps 695 mmHg 63%
    01:00 +20°C° 0 mm 1 mps 695 mmHg 62%
    02:00 +20°C° 0 mm 1 mps 695 mmHg 61%
    03:00 +19°C° 0 mm 1 mps 695 mmHg 61%
    04:00 +19°C° 0 mm 1 mps 696 mmHg 60%
    05:00 +19°C° 0 mm 1 mps 696 mmHg 60%
    06:00 +19°C° 0 mm 1 mps 696 mmHg 60%
    07:00 +20°C° 0 mm 2 mps 696 mmHg 52%
    08:00 +23°C° 0 mm 2 mps 697 mmHg 44%
    09:00 +25°C° 0 mm 2 mps 698 mmHg 36%
    10:00 +26°C° 0 mm 2 mps 697 mmHg 33%
    11:00 +27°C° 0 mm 3 mps 697 mmHg 30%
    12:00 +29°C° 0 mm 3 mps 697 mmHg 26%
    13:00 +29°C° 0 mm 3 mps 697 mmHg 26%
    14:00 +29°C° 0 mm 4 mps 697 mmHg 26%
    15:00 +29°C° 0 mm 4 mps 697 mmHg 26%
    16:00 +27°C° 0 mm 3 mps 697 mmHg 30%
    17:00 +26°C° 0 mm 3 mps 697 mmHg 34%
    18:00 +24°C° 0 mm 2 mps 697 mmHg 37%
    19:00 +23°C° 0 mm 2 mps 697 mmHg 42%
    20:00 +21°C° 0 mm 2 mps 697 mmHg 46%
    21:00 +20°C° 0 mm 2 mps 697 mmHg 51%
    22:00 +19°C° 0 mm 2 mps 697 mmHg 52%
    23:00 +19°C° 0 mm 2 mps 697 mmHg 53%

    25 September, Monday

    Time Temperature Precipitation Wind Pressure Humidity
    00:00 +18°C° 0 mm 2 mps 697 mmHg 54%
    01:00 +18°C° 0 mm 2 mps 697 mmHg 53%
    02:00 +18°C° 0 mm 2 mps 697 mmHg 51%
    03:00 +17°C° 0 mm 2 mps 697 mmHg 50%
    04:00 +17°C° 0 mm 2 mps 697 mmHg 49%
    05:00 +17°C° 0 mm 2 mps 697 mmHg 48%
    06:00 +17°C° 0 mm 2 mps 697 mmHg 47%
    07:00 +19°C° 0 mm 2 mps 698 mmHg 44%
    08:00 +21°C° 0 mm 2 mps 698 mmHg 41%
    09:00 +24°C° 0 mm 2 mps 699 mmHg 38%
    10:00 +25°C° 0 mm 2 mps 698 mmHg 37%
    11:00 +26°C° 0 mm 3 mps 698 mmHg 35%
    12:00 +27°C° 0 mm 3 mps 698 mmHg 33%
    13:00 +27°C° 0 mm 3 mps 698 mmHg 34%
    14:00 +27°C° 0 mm 3 mps 698 mmHg 34%
    15:00 +28°C° 0 mm 4 mps 698 mmHg 35%
    16:00 +26°C° 0 mm 3 mps 698 mmHg 40%
    17:00 +24°C° 0 mm 3 mps 698 mmHg 46%
    18:00 +22°C° 0 mm 3 mps 698 mmHg 51%
    19:00 +21°C° 0 mm 2 mps 698 mmHg 55%
    20:00 +20°C° 0 mm 2 mps 698 mmHg 60%
    21:00 +19°C° 0 mm 2 mps 698 mmHg 64%
    22:00 +18°C° 0 mm 2 mps 698 mmHg 66%
    23:00 +18°C° 0 mm 2 mps 698 mmHg 68%
    Show more